Location: Pcim
(49.7500°N, 19.9670°E)
Time: 20:05:59
(UTC+02:00)

ITAMSAT 1 - Visible Passes

Search period start: 22 April 2024 00:00
Search period end: 02 May 2024 00:00
Orbit: 783 x 795 km, 98.8° (Epoch: 22 April)

Date Brightness Start Highest point End Pass type
(mag) Time Alt. Az. Time Alt. Az. Time Alt. Az.
22 Apr 7.8 20:57:48 10° SSE 21:03:02 81° WSW 21:08:18 10° NNW visible
22 Apr 10.2 22:41:01 10° WSW 22:43:18 13° W 22:45:36 10° WNW visible
23 Apr 7.8 20:28:04 10° SSE 20:33:12 60° ENE 20:38:22 10° N visible
23 Apr 9.7 22:08:58 10° SW 22:13:02 23° W 22:17:07 10° NW visible
24 Apr 8.9 21:38:01 10° SSW 21:42:53 39° W 21:47:48 10° NNW visible
25 Apr 8.0 21:07:42 10° S 21:12:54 68° WSW 21:18:08 10° NNW visible
25 Apr 10.4 22:52:30 10° W 22:53:19 10° W 22:54:09 10° WNW visible
26 Apr 7.7 20:37:50 10° SSE 20:43:02 71° ENE 20:48:15 10° NNW visible
26 Apr 9.9 22:19:20 10° SW 22:23:00 19° W 22:26:40 10° NW visible
27 Apr 9.2 21:48:09 10° SSW 21:52:49 33° W 21:57:31 10° NNW visible
28 Apr 8.3 21:17:38 10° S 21:22:46 57° W 21:27:56 10° NNW visible
29 Apr 7.7 20:47:38 10° SSE 20:52:51 84° ENE 20:58:07 10° NNW visible
29 Apr 10.1 22:29:50 10° SW 22:32:58 16° W 22:36:06 10° NW visible
30 Apr 9.4 21:58:19 10° SSW 22:02:45 27° W 22:07:11 10° NW visible
01 May 8.6 21:27:37 10° S 21:32:39 47° W 21:37:42 10° NNW visible
